sat.trackr.live / text

‹ back to catalog

STARLINK-5368

NORAD 54840 · 2022-177W

PAYLOAD ACTIVE UNKNOWN

§ Identity

Operator
Country
US
Launch date
2022-12-28
Launch site
AFETR
Launch vehicle
Mass (kg)
RCS (m²)

Purposes: comms

External: N2YO · Heavens-Above · Gunter

§ Orbital elements

Epoch: 2026-05-25T03:18:05.793984Z

Period
94.27 min
Inclination
43.0038°
Eccentricity
0.0000913
Mean motion
15.27585565 rev/d
Perigee alt
482.4 km
Apogee alt
483.7 km
Semi-major
6,861.2 km
B*
6.2834e-5
RAAN
61.0334°
Arg perigee
261.6111°
Mean anomaly
98.4637°
Rev number
18,865

§ Raw data

STARLINK-53681 54840U 22177W   26145.13756706  .00001468  00000+0  62834-4 0  99982 54840  43.0038  61.0334 0000913 261.6111  98.4637 15.27585565188653

JSON: /api/v1/satellites/54840 · /tle

For live sub-satellite position, see the globe view (requires WebGL).

§ Visibility from observer

Set your observer location to see the next 7 days of passes ≥ 10°. The values pass through the URL so the page stays shareable.

No JS? Fill the form by hand. The geolocation button needs JavaScript.